Weather History for KBKF - October, 2012

Change the Weather History Date:

Tuesday, October 23, 2012

  Actual Average Record
Temperature  
Mean Temperature 62 °F -  
Max Temperature 77 °F 59 °F 82 °F (2003)
Min Temperature 44 °F 33 °F 24 °F (2002)
Degree Days  
Heating Degree Days 4    
Growing Degree Days 12 (Base 50)    
Moisture  
Dew Point 21 °F    
Average Humidity 27    
Maximum Humidity 61    
Minimum Humidity 6    
Precipitation  
Precipitation 0.00 in - - ()
Sea Level Pressure  
Sea Level Pressure 29.61 in    
Wind  
Wind Speed 13 mph (SSW)    
Max Wind Speed 21 mph    
Max Gust Speed 24 mph    
Visibility 10 miles    
Events      
Averages and records for this station are not official NWS values.
T = Trace of Precipitation, MM = Missing Value Source: NWS Daily Summary

Daily Weather History Graph

Daily Weather History Graph

Search for Another Location

Airport or City:

Trip Planner

Search our weather history database for the weather conditions in past years. The results will help you decide how hot, cold, wet, or windy it might be!

Date:

Astronomy

Oct. 23, 2012 Rise Set
Actual Time 7:18 AM MDT 6:07 PM MDT
Civil Twilight 6:50 AM MDT 6:35 PM MDT
Nautical Twilight 6:19 AM MDT 7:06 PM MDT
Astronomical Twilight 5:47 AM MDT 7:37 PM MDT
Moon 2:51 PM MDT (10/23) 1:13 AM MDT (10/23)
Length of Visible Light 11h 44m
Length of Day
10h 49m
Waxing Gibbous, 67% of the Moon is Illuminated
Oct 23
Waxing Gibbous
Oct 29
Full
Nov 6
Last Quarter
Nov 13
New
Nov 20
First Quarter

Hourly Weather History & Observations

Time (MDT) Temp. Windchill Dew Point Humidity Pressure Visibility Wind Dir Wind Speed Gust Speed Precip Events Conditions
12:55 AM 46.4 °F 41.5 °F 28.4 °F 50% 29.60 in 25.0 mi South 10.4 mph - N/A   Scattered Clouds
1:55 AM 50.0 °F - 24.8 °F 37% 29.59 in 25.0 mi SSW 9.2 mph - N/A   Scattered Clouds
2:55 AM 48.2 °F - 24.8 °F 40% 29.57 in 25.0 mi SSW 13.8 mph - N/A   Scattered Clouds
3:55 AM 51.8 °F - 23.0 °F 33% 29.57 in 25.0 mi South 13.8 mph - N/A   Partly Cloudy
4:55 AM 55.4 °F - 21.2 °F 26% 29.55 in 25.0 mi South 19.6 mph - N/A   Partly Cloudy
4:56 AM 57.2 °F - 23.0 °F 27% 29.79 in 10.0 mi South 17.3 mph - N/A   Clear
5:55 AM 55.4 °F - 21.2 °F 26% 29.58 in 25.0 mi South 20.7 mph - N/A   Partly Cloudy
6:55 AM 53.6 °F - 23.0 °F 30% 29.60 in 25.0 mi South 18.4 mph - N/A   Mostly Cloudy
7:55 AM 55.4 °F - 24.8 °F 31% 29.60 in 70.0 mi SSE 18.4 mph - N/A   Mostly Cloudy
8:55 AM 59.0 °F - 26.6 °F 29% 29.64 in 70.0 mi South 15.0 mph - N/A   Scattered Clouds
9:55 AM 66.2 °F - 28.4 °F 24% 29.62 in 70.0 mi South 11.5 mph - N/A   Partly Cloudy
10:55 AM 69.8 °F - 28.4 °F 21% 29.61 in 70.0 mi SW 11.5 mph - N/A   Partly Cloudy
11:55 AM 73.4 °F - 21.2 °F 14% 29.60 in 70.0 mi SSW 11.5 mph - N/A   Partly Cloudy
12:55 PM 75.2 °F - 17.6 °F 11% 29.57 in 70.0 mi WSW 13.8 mph - N/A   Partly Cloudy
1:55 PM 77.0 °F - 8.6 °F 7% 29.54 in 70.0 mi WSW 15.0 mph - N/A   Scattered Clouds
2:55 PM 77.0 °F - 5.0 °F 6% 29.52 in 70.0 mi WSW 16.1 mph - N/A   Scattered Clouds
3:55 PM 75.2 °F - 5.0 °F 7% 29.54 in 70.0 mi SW 15.0 mph 24.2 mph N/A   Mostly Cloudy
4:55 PM 75.2 °F - 6.8 °F 7% 29.52 in 70.0 mi SW 16.1 mph - N/A   Mostly Cloudy
5:55 PM 69.8 °F - 6.8 °F 9% 29.55 in 70.0 mi WSW 9.2 mph - N/A   Mostly Cloudy
6:55 PM 68.0 °F - 8.6 °F 10% 29.58 in 25.0 mi NNW 6.9 mph - N/A   Mostly Cloudy
7:55 PM 59.0 °F - 21.2 °F 23% 29.63 in 25.0 mi ESE 9.2 mph - N/A   Mostly Cloudy
8:55 PM 51.8 °F - 19.4 °F 28% 29.67 in 25.0 mi North 16.1 mph - N/A   Mostly Cloudy
9:55 PM 50.0 °F - 32.0 °F 50% 29.73 in 25.0 mi North 17.3 mph - N/A   Mostly Cloudy
10:55 PM 46.4 °F 40.4 °F 32.0 °F 57% 29.77 in 25.0 mi North 13.8 mph 19.6 mph N/A   Mostly Cloudy
11:55 PM 44.6 °F 40.7 °F 32.0 °F 61% 29.78 in 25.0 mi NNW 6.9 mph - N/A   Mostly Cloudy